| time (UTC) | temp C | wind direction | speed KPH | gust KPH | rain 1hr cm | rain 24hr cm | rain mn cm | humidity % | barometer mb |
| 20260506051136 | 13 | 232 | 14.5 | 27.4 | 0.00 | 0.00 | 0.00 | 61 | 1008.8 |
| 20260506050435 | 13 | 233 | 16.1 | 24.1 | 0.00 | 0.00 | 0.00 | 62 | 1008.6 |
| 20260506045033 | 14 | 231 | 11.3 | 19.3 | 0.00 | 0.00 | 0.00 | 57 | 1008.1 |
| 20260506044332 | 14 | 202 | 12.9 | 27.4 | 0.00 | 0.00 | 0.00 | 59 | 1007.9 |
| 20260506043631 | 14 | 228 | 19.3 | 27.4 | 0.00 | 0.00 | 0.00 | 61 | 1007.8 |
| 20260506042930 | 15 | 259 | 12.9 | 17.7 | 0.00 | 0.00 | 0.00 | 59 | 1008.2 |
| 20260506042229 | 15 | 247 | 11.3 | 17.7 | 0.00 | 0.00 | 0.00 | 57 | 1008.2 |
| 20260506041528 | 15 | 270 | 3.2 | 12.9 | 0.00 | 0.00 | 0.00 | 56 | 1008.1 |
| 20260506040827 | 15 | 296 | 8.0 | 12.9 | 0.00 | 0.00 | 0.00 | 56 | 1007.4 |
| 20260506040126 | 14 | 17 | 3.2 | 8.0 | 0.00 | 0.00 | 0.00 | 59 | 1007.8 |
| 20260506035426 | 14 | 0 | 0.0 | 4.8 | 0.00 | 0.00 | 0.00 | 58 | 1007.4 |
| 20260506034724 | 14 | 0 | 0.0 | 8.0 | 0.00 | 0.00 | 0.00 | 57 | 1007.3 |
| 20260506034023 | 14 | 169 | 1.6 | 8.0 | 0.00 | 0.00 | 0.00 | 57 | 1007.2 |
| 20260506033322 | 15 | 0 | 0.0 | 4.8 | 0.00 | 0.00 | 0.00 | 56 | 1007.3 |
| 20260506032621 | 15 | 210 | 1.6 | 4.8 | 0.00 | 0.00 | 0.00 | 56 | 1007.2 |
| 20260506031920 | 15 | 0 | 0.0 | 4.8 | 0.00 | 0.00 | 0.00 | 54 | 1007.2 |
| 20260506031219 | 15 | 0 | 0.0 | 4.8 | 0.00 | 0.00 | 0.00 | 53 | 1007.6 |
| 20260506030520 | 15 | 209 | 3.2 | 6.4 | 0.00 | 0.00 | 0.00 | 52 | 1006.9 |
| 20260506025817 | 15 | 0 | 0.0 | 3.2 | 0.00 | 0.00 | 0.00 | 52 | 1007.4 |
| 20260506025116 | 15 | 204 | 1.6 | 6.4 | 0.00 | 0.00 | 0.00 | 49 | 1007.2 |
| 20260506024415 | 16 | 200 | 3.2 | 6.4 | 0.00 | 0.00 | 0.00 | 50 | 1007.1 |
| 20260506023714 | 16 | 0 | 0.0 | 1.6 | 0.00 | 0.00 | 0.00 | 49 | 1007.1 |
| 20260506023013 | 16 | 0 | 0.0 | 3.2 | 0.00 | 0.00 | 0.00 | 47 | 1006.8 |
| 20260506022312 | 17 | 0 | 0.0 | 1.6 | 0.00 | 0.00 | 0.00 | 45 | 1006.4 |
| 20260506020910 | 18 | 0 | 0.0 | 4.8 | 0.00 | 0.00 | 0.00 | 45 | 1006.1 |
| 20260506020209 | 17 | 0 | 0.0 | 9.7 | 0.00 | 0.00 | 0.00 | 45 | 1006.1 |
| 20260506015508 | 18 | 70 | 4.8 | 8.0 | 0.00 | 0.00 | 0.00 | 44 | 1006.1 |
| 20260506014808 | 18 | 81 | 3.2 | 8.0 | 0.00 | 0.00 | 0.00 | 44 | 1006.2 |
| 20260506013405 | 18 | 81 | 1.6 | 11.3 | 0.00 | 0.00 | 0.00 | 41 | 1006.8 |
| 20260506012704 | 18 | 85 | 3.2 | 8.0 | 0.00 | 0.00 | 0.00 | 43 | 1006.8 |
| 20260506012003 | 18 | 80 | 4.8 | 8.0 | 0.00 | 0.00 | 0.00 | 42 | 1006.3 |
| 20260506011302 | 18 | 46 | 3.2 | 9.7 | 0.00 | 0.00 | 0.00 | 40 | 1006.0 |
| 20260506005859 | 18 | 60 | 4.8 | 16.1 | 0.00 | 0.00 | 0.00 | 41 | 1006.3 |
| 20260506005158 | 18 | 38 | 4.8 | 9.7 | 0.00 | 0.00 | 0.00 | 40 | 1006.8 |
| 20260506004457 | 18 | 94 | 4.8 | 17.7 | 0.00 | 0.00 | 0.00 | 41 | 1006.2 |
| 20260506003756 | 18 | 62 | 11.3 | 17.7 | 0.00 | 0.00 | 0.00 | 41 | 1006.3 |
| 20260506003055 | 18 | 68 | 9.7 | 17.7 | 0.00 | 0.00 | 0.00 | 42 | 1006.2 |
| 20260506002354 | 18 | 81 | 6.4 | 19.3 | 0.00 | 0.00 | 0.00 | 41 | 1006.2 |
| 20260506001653 | 18 | 67 | 9.7 | 20.9 | 0.00 | 0.00 | 0.00 | 44 | 1006.3 |
| 20260506000954 | 18 | 83 | 11.3 | 17.7 | 0.00 | 0.00 | 0.00 | 42 | 1006.2 |
| 20260506000251 | 18 | 71 | 4.8 | 19.3 | 0.00 | 0.00 | 0.00 | 41 | 1006.3 |
| 20260505235552 | 18 | 77 | 8.0 | 24.1 | 0.00 | 0.00 | 0.00 | 42 | 1006.2 |
| 20260505234850 | 18 | 77 | 17.7 | 24.1 | 0.00 | 0.00 | 0.00 | 43 | 1006.3 |
| 20260505234148 | 18 | 74 | 4.8 | 17.7 | 0.00 | 0.00 | 0.00 | 43 | 1006.9 |
| 20260505233447 | 18 | 84 | 6.4 | 24.1 | 0.00 | 0.00 | 0.00 | 43 | 1006.2 |
| 20260505232746 | 17 | 80 | 12.9 | 25.7 | 0.00 | 0.00 | 0.00 | 45 | 1006.3 |
| 20260505232045 | 17 | 101 | 12.9 | 27.4 | 0.00 | 0.00 | 0.00 | 45 | 1006.3 |
| 20260505231344 | 17 | 74 | 19.3 | 30.6 | 0.00 | 0.00 | 0.00 | 46 | 1006.4 |
| 20260505230643 | 17 | 90 | 11.3 | 24.1 | 0.00 | 0.00 | 0.00 | 45 | 1006.4 |
| 20260505225942 | 17 | 91 | 14.5 | 32.2 | 0.00 | 0.00 | 0.00 | 46 | 1006.8 |
| 20260505225241 | 17 | 90 | 19.3 | 32.2 | 0.00 | 0.00 | 0.00 | 46 | 1006.7 |
| 20260505224540 | 17 | 87 | 19.3 | 35.4 | 0.00 | 0.00 | 0.00 | 47 | 1006.8 |
| 20260505223839 | 17 | 89 | 20.9 | 35.4 | 0.00 | 0.00 | 0.00 | 45 | 1006.7 |
| 20260505223138 | 17 | 86 | 14.5 | 29.0 | 0.00 | 0.00 | 0.00 | 46 | 1007.0 |
| 20260505222437 | 16 | 98 | 17.7 | 29.0 | 0.00 | 0.00 | 0.00 | 46 | 1007.0 |
| 20260505221739 | 16 | 88 | 19.3 | 29.0 | 0.00 | 0.00 | 0.00 | 48 | 1007.3 |
| 20260505221035 | 16 | 88 | 19.3 | 29.0 | 0.00 | 0.00 | 0.00 | 48 | 1007.5 |
| 20260505220334 | 15 | 95 | 17.7 | 29.0 | 0.00 | 0.00 | 0.00 | 47 | 1006.9 |
| 20260505215633 | 15 | 99 | 14.5 | 29.0 | 0.00 | 0.00 | 0.00 | 48 | 1006.9 |
| 20260505214231 | 15 | 95 | 20.9 | 33.8 | 0.00 | 0.00 | 0.00 | 50 | 1007.6 |
| 20260505213530 | 15 | 89 | 22.5 | 30.6 | 0.00 | 0.00 | 0.00 | 50 | 1008.1 |
| 20260505212829 | 15 | 86 | 20.9 | 29.0 | 0.00 | 0.00 | 0.00 | 50 | 1008.2 |
| 20260505211427 | 15 | 93 | 17.7 | 29.0 | 0.00 | 0.00 | 0.00 | 50 | 1008.2 |
| 20260505210726 | 15 | 82 | 17.7 | 29.0 | 0.00 | 0.00 | 0.00 | 50 | 1008.1 |
| 20260505210026 | 15 | 80 | 16.1 | 25.7 | 0.00 | 0.00 | 0.00 | 50 | 1008.1 |
| 20260505205324 | 15 | 85 | 16.1 | 29.0 | 0.00 | 0.00 | 0.00 | 50 | 1008.1 |
| 20260505204623 | 16 | 84 | 19.3 | 30.6 | 0.00 | 0.00 | 0.00 | 48 | 1008.0 |
| 20260505203923 | 16 | 85 | 19.3 | 30.6 | 0.00 | 0.00 | 0.00 | 46 | 1007.2 |
| 20260505203221 | 16 | 78 | 19.3 | 30.6 | 0.00 | 0.00 | 0.00 | 47 | 1007.8 |
| 20260505202520 | 17 | 85 | 12.9 | 24.1 | 0.00 | 0.00 | 0.00 | 46 | 1007.7 |
| 20260505201819 | 17 | 89 | 14.5 | 25.7 | 0.00 | 0.00 | 0.00 | 46 | 1007.3 |
| 20260505201118 | 17 | 89 | 8.0 | 20.9 | 0.00 | 0.00 | 0.00 | 46 | 1007.6 |
| 20260505200417 | 16 | 96 | 11.3 | 19.3 | 0.00 | 0.00 | 0.00 | 48 | 1007.7 |
| 20260505195716 | 16 | 87 | 8.0 | 16.1 | 0.00 | 0.00 | 0.00 | 46 | 1007.3 |
| 20260505195015 | 16 | 90 | 9.7 | 17.7 | 0.00 | 0.00 | 0.00 | 46 | 1007.9 |
| 20260505194314 | 16 | 74 | 9.7 | 19.3 | 0.00 | 0.00 | 0.00 | 45 | 1008.0 |
| 20260505193613 | 16 | 97 | 8.0 | 19.3 | 0.00 | 0.00 | 0.00 | 45 | 1008.0 |
| 20260505192913 | 16 | 89 | 11.3 | 22.5 | 0.00 | 0.00 | 0.00 | 47 | 1007.9 |
| 20260505192213 | 16 | 75 | 11.3 | 20.9 | 0.00 | 0.00 | 0.00 | 45 | 1008.0 |
| 20260505191510 | 16 | 68 | 9.7 | 19.3 | 0.00 | 0.00 | 0.00 | 47 | 1008.0 |
| 20260505190811 | 16 | 53 | 9.7 | 19.3 | 0.00 | 0.00 | 0.00 | 45 | 1008.1 |
| 20260505190108 | 16 | 71 | 9.7 | 17.7 | 0.00 | 0.00 | 0.00 | 47 | 1008.1 |
| 20260505185407 | 16 | 58 | 8.0 | 14.5 | 0.00 | 0.00 | 0.00 | 45 | 1008.2 |
| 20260505184706 | 15 | 79 | 8.0 | 19.3 | 0.00 | 0.00 | 0.00 | 49 | 1007.9 |
| 20260505183304 | 15 | 45 | 14.5 | 19.3 | 0.00 | 0.00 | 0.00 | 48 | 1008.2 |
| 20260505181902 | 15 | 3 | 4.8 | 16.1 | 0.00 | 0.00 | 0.00 | 49 | 1008.1 |
| 20260505181201 | 15 | 17 | 9.7 | 16.1 | 0.00 | 0.00 | 0.00 | 49 | 1008.0 |
| 20260505180502 | 15 | 52 | 6.4 | 11.3 | 0.00 | 0.00 | 0.00 | 51 | 1007.9 |
| 20260505175759 | 14 | 22 | 6.4 | 17.7 | 0.00 | 0.00 | 0.00 | 52 | 1007.5 |
| 20260505175058 | 14 | 20 | 11.3 | 16.1 | 0.00 | 0.00 | 0.00 | 53 | 1008.2 |
| 20260505174357 | 15 | 27 | 11.3 | 16.1 | 0.00 | 0.00 | 0.00 | 52 | 1008.0 |
| 20260505173657 | 15 | 13 | 6.4 | 16.1 | 0.00 | 0.00 | 0.00 | 51 | 1008.0 |
| 20260505172955 | 15 | 356 | 6.4 | 14.5 | 0.00 | 0.00 | 0.00 | 51 | 1008.0 |
| 20260505172254 | 15 | 360 | 8.0 | 14.5 | 0.00 | 0.00 | 0.00 | 51 | 1007.8 |
| 20260505171553 | 15 | 13 | 4.8 | 11.3 | 0.00 | 0.00 | 0.00 | 50 | 1007.8 |
| 20260505170852 | 15 | 345 | 4.8 | 11.3 | 0.00 | 0.00 | 0.00 | 49 | 1007.8 |
| 20260505170151 | 15 | 19 | 4.8 | 9.7 | 0.00 | 0.00 | 0.00 | 51 | 1007.7 |
| 20260505165450 | 15 | 351 | 3.2 | 11.3 | 0.00 | 0.00 | 0.00 | 52 | 1007.5 |
| 20260505164048 | 15 | 7 | 6.4 | 11.3 | 0.00 | 0.00 | 0.00 | 52 | 1007.2 |
| 20260505163347 | 14 | 360 | 4.8 | 9.7 | 0.00 | 0.00 | 0.00 | 52 | 1007.4 |
| 20260505162646 | 14 | 10 | 6.4 | 14.5 | 0.00 | 0.00 | 0.00 | 52 | 1007.5 |
| 20260505161945 | 14 | 4 | 6.4 | 14.5 | 0.00 | 0.00 | 0.00 | 53 | 1007.5 |
| 20260505161244 | 14 | 36 | 8.0 | 12.9 | 0.00 | 0.00 | 0.00 | 54 | 1007.5 |
| 20260505160543 | 14 | 29 | 8.0 | 19.3 | 0.00 | 0.00 | 0.00 | 54 | 1007.4 |
| 20260505153038 | 14 | 13 | 8.0 | 11.3 | 0.00 | 0.00 | 0.00 | 47 | 1007.3 |
| 20260505152337 | 14 | 57 | 8.0 | 17.7 | 0.00 | 0.00 | 0.00 | 51 | 1007.3 |
| 20260505151637 | 14 | 53 | 9.7 | 17.7 | 0.00 | 0.00 | 0.00 | 52 | 1007.2 |
| 20260505150936 | 14 | 54 | 9.7 | 14.5 | 0.00 | 0.00 | 0.00 | 50 | 1007.3 |
| 20260505150234 | 15 | 42 | 4.8 | 8.0 | 0.00 | 0.00 | 0.00 | 48 | 1006.9 |
| 20260505140625 | 15 | 0 | 0.0 | 11.3 | 0.00 | 0.00 | 0.00 | 59 | 1006.6 |
| 20260505124914 | 13 | 117 | 1.6 | 11.3 | 0.00 | 0.00 | 0.00 | 61 | 1006.1 |
| 20260505124213 | 13 | 129 | 3.2 | 9.7 | 0.00 | 0.00 | 0.00 | 63 | 1005.9 |
| 20260505123512 | 13 | 104 | 4.8 | 14.5 | 0.00 | 0.00 | 0.00 | 63 | 1005.8 |
| 20260505122811 | 14 | 92 | 6.4 | 14.5 | 0.00 | 0.00 | 0.00 | 63 | 1005.5 |
| 20260505122110 | 14 | 76 | 6.4 | 14.5 | 0.00 | 0.00 | 0.00 | 61 | 1005.4 |
| 20260505121409 | 15 | 137 | 1.6 | 19.3 | 0.00 | 0.00 | 0.00 | 50 | 1005.6 |
| 20260505120708 | 15 | 152 | 1.6 | 9.7 | 0.00 | 0.00 | 0.00 | 53 | 1005.5 |
| 20260505120007 | 14 | 68 | 3.2 | 8.0 | 0.00 | 0.00 | 0.00 | 59 | 1005.3 |
| 20260505115306 | 14 | 0 | 0.0 | 8.0 | 0.00 | 0.00 | 0.00 | 58 | 1005.5 |
| 20260505114605 | 14 | 56 | 1.6 | 9.7 | 0.00 | 0.00 | 0.00 | 59 | 1005.9 |
| 20260505113904 | 14 | 49 | 4.8 | 8.0 | 0.00 | 0.00 | 0.00 | 60 | 1005.9 |
| 20260505113203 | 13 | 118 | 3.2 | 8.0 | 0.00 | 0.00 | 0.00 | 61 | 1006.0 |
| 20260505112502 | 13 | 0 | 0.0 | 6.4 | 0.00 | 0.00 | 0.00 | 62 | 1006.0 |
| 20260505111803 | 14 | 0 | 0.0 | 8.0 | 0.00 | 0.00 | 0.00 | 61 | 1006.0 |
| 20260505111100 | 14 | 53 | 4.8 | 8.0 | 0.00 | 0.00 | 0.00 | 60 | 1006.0 |
| 20260505110359 | 14 | 289 | 1.6 | 8.0 | 0.00 | 0.00 | 0.00 | 59 | 1006.0 |
| 20260505102153 | 13 | 252 | 6.4 | 9.7 | 0.00 | 0.00 | 0.00 | 64 | 1005.5 |
| 20260505101452 | 14 | 205 | 4.8 | 9.7 | 0.00 | 0.00 | 0.00 | 63 | 1005.6 |
| 20260505100751 | 14 | 84 | 1.6 | 9.7 | 0.00 | 0.00 | 0.00 | 61 | 1005.6 |
| 20260505100050 | 14 | 73 | 6.4 | 12.9 | 0.00 | 0.00 | 0.00 | 62 | 1005.7 |
| 20260505095349 | 14 | 62 | 6.4 | 19.3 | 0.00 | 0.00 | 0.00 | 62 | 1005.7 |
| 20260505094648 | 15 | 86 | 6.4 | 14.5 | 0.00 | 0.00 | 0.00 | 62 | 1005.8 |
| 20260505093947 | 15 | 265 | 3.2 | 12.9 | 0.00 | 0.00 | 0.00 | 58 | 1005.7 |
| 20260505093246 | 15 | 254 | 6.4 | 22.5 | 0.00 | 0.00 | 0.00 | 60 | 1005.6 |
| 20260505092622 | 15 | 239 | 16.1 | 29.0 | 0.00 | 0.00 | 0.00 | 61 | 1005.7 |
| 20260505092545 | 15 | 239 | 16.1 | 29.0 | 0.00 | 0.00 | 0.00 | 61 | 1005.7 |
| 20260505091844 | 15 | 235 | 8.0 | 16.1 | 0.00 | 0.00 | 0.00 | 59 | 1005.8 |
| 20260505091143 | 15 | 0 | 0.0 | 14.5 | 0.00 | 0.00 | 0.00 | 60 | 1005.6 |
| 20260505090442 | 15 | 111 | 8.0 | 14.5 | 0.00 | 0.00 | 0.00 | 59 | 1005.7 |
| 20260505085741 | 14 | 96 | 3.2 | 12.9 | 0.00 | 0.00 | 0.00 | 63 | 1005.7 |
| 20260505085040 | 14 | 125 | 6.4 | 19.3 | 0.00 | 0.00 | 0.00 | 64 | 1005.8 |
| 20260505084339 | 15 | 133 | 8.0 | 19.3 | 0.00 | 0.00 | 0.00 | 61 | 1005.9 |
| 20260505083638 | 15 | 130 | 4.8 | 11.3 | 0.00 | 0.00 | 0.00 | 59 | 1005.8 |
| 20260505082937 | 15 | 131 | 1.6 | 9.7 | 0.00 | 0.00 | 0.00 | 56 | 1006.0 |
| 20260505082236 | 15 | 130 | 1.6 | 14.5 | 0.00 | 0.00 | 0.00 | 56 | 1006.1 |
| 20260505081535 | 15 | 0 | 0.0 | 8.0 | 0.00 | 0.00 | 0.00 | 58 | 1006.2 |
| 20260505080834 | 15 | 52 | 3.2 | 9.7 | 0.00 | 0.00 | 0.00 | 61 | 1006.1 |
| 20260505080133 | 15 | 44 | 1.6 | 14.5 | 0.00 | 0.00 | 0.00 | 60 | 1006.1 |
| 20260505075432 | 15 | 81 | 1.6 | 16.1 | 0.00 | 0.00 | 0.00 | 60 | 1006.0 |
| 20260505074731 | 15 | 66 | 4.8 | 14.5 | 0.00 | 0.00 | 0.00 | 59 | 1006.0 |
| 20260505074030 | 15 | 122 | 3.2 | 9.7 | 0.00 | 0.00 | 0.00 | 59 | 1006.0 |
| 20260505073329 | 15 | 117 | 3.2 | 12.9 | 0.00 | 0.00 | 0.00 | 58 | 1006.1 |
| 20260505072628 | 15 | 127 | 6.4 | 11.3 | 0.00 | 0.00 | 0.00 | 60 | 1006.1 |
| 20260505071927 | 15 | 0 | 0.0 | 9.7 | 0.00 | 0.00 | 0.00 | 59 | 1006.6 |
| 20260505071226 | 15 | 67 | 1.6 | 9.7 | 0.00 | 0.00 | 0.00 | 58 | 1006.7 |
| 20260505070525 | 15 | 101 | 1.6 | 9.7 | 0.00 | 0.00 | 0.00 | 58 | 1006.5 |
| 20260505065825 | 15 | 88 | 3.2 | 14.5 | 0.00 | 0.00 | 0.00 | 57 | 1006.5 |
| 20260505065123 | 16 | 131 | 6.4 | 14.5 | 0.00 | 0.00 | 0.00 | 54 | 1006.4 |
| 20260505064422 | 16 | 116 | 4.8 | 11.3 | 0.00 | 0.00 | 0.00 | 54 | 1006.0 |
| 20260505063721 | 16 | 33 | 1.6 | 8.0 | 0.00 | 0.00 | 0.00 | 53 | 1006.0 |
| 20260505063020 | 16 | 0 | 0.0 | 9.7 | 0.00 | 0.00 | 0.00 | 54 | 1005.9 |
| 20260505062319 | 16 | 117 | 3.2 | 16.1 | 0.00 | 0.00 | 0.00 | 52 | 1005.8 |
| 20260505061618 | 16 | 131 | 8.0 | 16.1 | 0.00 | 0.00 | 0.00 | 51 | 1005.8 |
| 20260505060917 | 16 | 0 | 0.0 | 9.7 | 0.00 | 0.00 | 0.00 | 49 | 1005.8 |